Starlink 31967

operational
NORAD ID: 60021 Int'l Des: 2024-111 Owner: SPXS Country: US Constellation: starlink
LEOCIRCULAR

Starlink 31967について

説明を読み込み中...

リアルタイム位置

3D地球を読み込み中...

次回通過

高度履歴

Altitude vs Time

uPlot chart will show altitude changes over time

軌道要素

1 60021U 24111F 26035.81099569 .00001527 00000-0 63655-4 0 9995
2 60021 53.1587 228.0559 0001366 93.3338 266.7819 15.30202347 94016
Epoch: Feb 4, 2026 • Age: 18 hours

現在のステータス

高度 480.3 km
速度 7.63 km/s
衛星直下点 50.47°N, 41.95°W
打ち上げ日 Jun 8, 2024
運用期間 1.6 years
タイプ internet

技術仕様

分類 Payload
質量 730.00 kg
乾燥質量 700.00 kg
総質量 730.00 kg
長さ 0.30 m
直径 4.10 m
スパン 29.00 m
形状 Box + pan
製造者 SPXS
バスタイプ Starlink V2M
フェーズステータス In Orbit
所有者/国 SPXS/US

大規模コンステレーション

Loading constellations...